星链-30085 (STARLINK-30085 )

导读

STARLINK-30085是美国SpaceX公司星链(Starlink)互联网卫星项目的成员,于2023年5月19日8时发射升空,属于Starlink Group组网卫星,旨在为全球提供高速低延迟卫星互联网服务,该卫星在近地轨道运行,是美国星链计划大规模扩张低轨星座的一环。

基本信息
目录编号:
56709
目录名称:
STARLINK-30085
国际标识:
2023-067X
轨道中心:
EARTH
卫星名称:
星链-30085
卫星全名:
星链-30085 (STARLINK-30085 )
卫星状态:
在轨 (已飞行1126 天)
发射日期:
2023-05-19 UTC
国别 :
美国 (US)
星等 :
--
轨道信息
数据来源 国际轨道数据
星历时间: 2026-06-18T10:59:44+0800
11小时前
查看轨道信息
半长轴: 6861.175km
偏心率: 0.0001221
轨道倾角: 43.001°
近地点辐角 271.208°
升交点赤经 63.564°
平近点角 88.863°
近地点: 482.2km
远地点: 483.876km
周期: 94.267分钟
每日圈数: 15.27584
详细信息
固有亮度:
5
最大亮度:
0.3
卫星平台:
Starlink v2.0 mini
覆盖范围:
全球
运营商:
太空探索技术公司
运营商所在国:
美国
制造商(研发单位):
太空探索技术公司
制造商所在国:
美国
使用方式:
暂无
卫星简介
星链(Starlink)计划是由太空探索技术公司(SpaceX)提出的一个巨型低轨卫星互联网星座项目,计划在2019年至2024年间在太空搭建由约1.2万颗卫星组成的“星链”网络,其中1584颗将部署在地球上空550千米处的近地轨道,并从2020年开始工作。该卫星仍在工作。
2D轨道图
3D轨道图
轨道高度分析图
轨道倾角分析图
轨道综合分析图
查看轨道综合分析图